CTN040 LDZD-LDPL

Flight info

Callsign CTN040
Flight time 0h 36m
Altitude 10200
Route LDZD RAVN1U RAVNA DCT CRE LDPL
Aircraft A320/M-S/L

Departure

Time 2026-05-08 21:49
Airport Zadar Airport (LDZD)

Arrival

Time 2026-05-08 22:26
Airport Pula Airport (LDPL)
Time Latitude Longitude Altitude Speed Heading
2026-05-08 21:44 44.09663 15.35441 273 ft 0 kts 326°
2026-05-08 21:46 44.09666 15.35441 273 ft 1 kts 343°
2026-05-08 21:46 44.09676 15.35456 275 ft 3 kts 65°
2026-05-08 21:47 44.09680 15.35469 273 ft 0 kts 70°
2026-05-08 21:47 44.09676 15.35492 272 ft 7 kts 118°
2026-05-08 21:47 44.09590 15.35543 275 ft 21 kts 175°
2026-05-08 21:47 44.09451 15.35545 278 ft 19 kts 174°
2026-05-08 21:48 44.09352 15.35650 280 ft 19 kts 130°
2026-05-08 21:48 44.09293 15.35736 281 ft 7 kts 140°
2026-05-08 21:48 44.09266 15.35742 279 ft 2 kts 193°
2026-05-08 21:48 44.09250 15.35730 279 ft 3 kts 213°
2026-05-08 21:49 44.09210 15.35686 279 ft 30 kts 220°
2026-05-08 21:49 44.08835 15.35223 286 ft 111 kts 221°
2026-05-08 21:49 44.08098 15.34311 380 ft 163 kts 222°
2026-05-08 21:49 44.07294 15.33303 1193 ft 156 kts 223°
2026-05-08 21:50 44.06405 15.32224 1544 ft 178 kts 222°
2026-05-08 21:50 44.05462 15.31095 2206 ft 177 kts 222°
2026-05-08 21:50 44.04524 15.29947 2697 ft 187 kts 223°
2026-05-08 21:50 44.03490 15.28670 2895 ft 210 kts 222°
2026-05-08 21:51 44.02391 15.27323 3374 ft 212 kts 222°
2026-05-08 21:51 44.01281 15.25965 3848 ft 213 kts 222°
2026-05-08 21:51 44.00157 15.24592 4144 ft 223 kts 222°
2026-05-08 21:51 43.98938 15.23100 4162 ft 243 kts 222°
2026-05-08 21:52 43.97630 15.21502 4171 ft 257 kts 222°
2026-05-08 21:52 43.96261 15.19829 4179 ft 266 kts 223°
2026-05-08 21:52 43.95173 15.17775 4246 ft 267 kts 255°
2026-05-08 21:52 43.95149 15.15253 4376 ft 265 kts 292°
2026-05-08 21:53 43.96143 15.13140 4488 ft 265 kts 312°
2026-05-08 21:53 43.97364 15.11194 4560 ft 267 kts 311°
2026-05-08 21:53 43.98575 15.09284 4960 ft 254 kts 316°
2026-05-08 21:53 43.99864 15.07782 5730 ft 233 kts 326°
2026-05-08 21:54 44.01208 15.06621 6192 ft 231 kts 333°
2026-05-08 21:54 44.02676 15.05628 6519 ft 232 kts 338°
2026-05-08 21:54 44.04201 15.04875 6825 ft 233 kts 344°
2026-05-08 21:54 44.05764 15.04249 7121 ft 235 kts 345°
2026-05-08 21:55 44.07338 15.03635 7413 ft 236 kts 345°
2026-05-08 21:55 44.08923 15.03026 7708 ft 236 kts 345°
2026-05-08 21:55 44.10488 15.02422 7975 ft 237 kts 345°
2026-05-08 21:56 44.13677 15.01188 8483 ft 239 kts 345°
2026-05-08 21:56 44.15281 15.00566 8737 ft 239 kts 345°
2026-05-08 21:56 44.16886 14.99944 8980 ft 240 kts 345°
2026-05-08 21:56 44.18499 14.99318 9204 ft 241 kts 346°
2026-05-08 21:57 44.20115 14.98691 9425 ft 241 kts 345°
2026-05-08 21:57 44.21735 14.98060 9626 ft 242 kts 345°
2026-05-08 21:57 44.23381 14.97421 9998 ft 242 kts 346°
2026-05-08 21:57 44.24988 14.96796 10149 ft 242 kts 346°
2026-05-08 21:58 44.26615 14.96165 10219 ft 243 kts 345°
2026-05-08 21:58 44.28240 14.95530 10248 ft 242 kts 345°
2026-05-08 21:58 44.29868 14.94896 10265 ft 243 kts 345°
2026-05-08 21:58 44.31497 14.94261 10265 ft 243 kts 345°
2026-05-08 21:59 44.33122 14.93627 10273 ft 242 kts 345°
2026-05-08 21:59 44.34747 14.92993 10273 ft 243 kts 345°
2026-05-08 21:59 44.36378 14.92356 10277 ft 243 kts 345°
2026-05-08 21:59 44.38002 14.91721 10279 ft 242 kts 345°
2026-05-08 22:00 44.39625 14.91087 10275 ft 242 kts 345°
2026-05-08 22:00 44.41253 14.90450 10274 ft 243 kts 345°
2026-05-08 22:00 44.42879 14.89814 10274 ft 242 kts 345°
2026-05-08 22:00 44.44498 14.89179 10278 ft 242 kts 345°
2026-05-08 22:01 44.46103 14.88551 10278 ft 243 kts 345°
2026-05-08 22:01 44.47729 14.87914 10280 ft 243 kts 345°
2026-05-08 22:01 44.49355 14.87276 10279 ft 242 kts 345°
2026-05-08 22:01 44.50970 14.86602 10276 ft 243 kts 335°
2026-05-08 22:02 44.52338 14.85223 10317 ft 245 kts 319°
2026-05-08 22:02 44.53593 14.83611 10298 ft 244 kts 317°
2026-05-08 22:02 44.54826 14.81989 10291 ft 243 kts 317°
2026-05-08 22:02 44.56067 14.80371 10289 ft 244 kts 320°
2026-05-08 22:03 44.57370 14.78849 10285 ft 243 kts 322°
2026-05-08 22:03 44.58687 14.77361 10280 ft 243 kts 322°
2026-05-08 22:03 44.60011 14.75877 10274 ft 244 kts 322°
2026-05-08 22:03 44.61338 14.74390 10108 ft 243 kts 322°
2026-05-08 22:04 44.62656 14.72909 9730 ft 242 kts 322°
2026-05-08 22:04 44.63969 14.71436 9312 ft 241 kts 322°
2026-05-08 22:04 44.65276 14.69965 8911 ft 240 kts 322°
2026-05-08 22:04 44.66576 14.68502 8519 ft 239 kts 321°
2026-05-08 22:05 44.67880 14.67033 8270 ft 239 kts 321°
2026-05-08 22:05 44.69164 14.65584 8163 ft 235 kts 321°
2026-05-08 22:05 44.70446 14.64139 8117 ft 237 kts 321°
2026-05-08 22:05 44.71730 14.62690 8099 ft 237 kts 321°
2026-05-08 22:06 44.73014 14.61240 8092 ft 237 kts 321°
2026-05-08 22:06 44.74280 14.59811 8087 ft 237 kts 321°
2026-05-08 22:06 44.75574 14.58348 7949 ft 237 kts 321°
2026-05-08 22:06 44.76857 14.56898 7610 ft 236 kts 321°
2026-05-08 22:07 44.78152 14.55476 7225 ft 236 kts 325°
2026-05-08 22:07 44.79515 14.54204 6860 ft 234 kts 327°
2026-05-08 22:07 44.80894 14.52985 6499 ft 233 kts 327°
2026-05-08 22:07 44.82255 14.51747 6109 ft 233 kts 326°
2026-05-08 22:08 44.83587 14.50444 5786 ft 233 kts 323°
2026-05-08 22:08 44.84836 14.49106 5634 ft 220 kts 321°
2026-05-08 22:08 44.86000 14.47730 5567 ft 218 kts 318°
2026-05-08 22:08 44.87115 14.46271 5425 ft 220 kts 315°
2026-05-08 22:09 44.88063 14.44608 5046 ft 218 kts 290°
2026-05-08 22:09 44.88397 14.42530 4761 ft 217 kts 279°
2026-05-08 22:09 44.88626 14.40446 4620 ft 213 kts 277°
2026-05-08 22:09 44.88824 14.38369 4558 ft 215 kts 276°
2026-05-08 22:10 44.89000 14.36277 4533 ft 214 kts 276°
2026-05-08 22:10 44.89160 14.34187 4526 ft 214 kts 276°
2026-05-08 22:10 44.89474 14.32130 4521 ft 215 kts 285°
2026-05-08 22:10 44.89860 14.30089 4514 ft 215 kts 282°
2026-05-08 22:11 44.90051 14.28032 4514 ft 214 kts 272°
2026-05-08 22:11 44.90081 14.25937 4520 ft 207 kts 269°
2026-05-08 22:11 44.90054 14.23979 4515 ft 199 kts 267°
2026-05-08 22:11 44.90000 14.22020 4486 ft 200 kts 266°
2026-05-08 22:12 44.90001 14.20048 4163 ft 200 kts 270°
2026-05-08 22:12 44.90002 14.18114 3856 ft 192 kts 268°
2026-05-08 22:12 44.89969 14.16262 3568 ft 184 kts 267°
2026-05-08 22:12 44.89921 14.14441 3304 ft 187 kts 267°
2026-05-08 22:13 44.89870 14.12613 3041 ft 186 kts 267°
2026-05-08 22:13 44.89824 14.10867 2787 ft 158 kts 267°
2026-05-08 22:13 44.89787 14.09394 2579 ft 151 kts 267°
2026-05-08 22:13 44.89750 14.07919 2373 ft 149 kts 267°
2026-05-08 22:14 44.89712 14.06460 2163 ft 149 kts 267°
2026-05-08 22:14 44.89676 14.05001 1954 ft 148 kts 267°
2026-05-08 22:14 44.89640 14.03553 1742 ft 148 kts 267°
2026-05-08 22:14 44.89604 14.02103 1523 ft 147 kts 267°
2026-05-08 22:15 44.89568 14.00659 1311 ft 146 kts 267°
2026-05-08 22:15 44.89530 13.99221 1103 ft 147 kts 266°
2026-05-08 22:15 44.89464 13.97791 893 ft 146 kts 268°
2026-05-08 22:15 44.89436 13.96366 683 ft 145 kts 268°
2026-05-08 22:16 44.89407 13.94945 477 ft 144 kts 269°
2026-05-08 22:16 44.89379 13.93538 293 ft 143 kts 268°
2026-05-08 22:16 44.89354 13.92147 255 ft 143 kts 269°
2026-05-08 22:16 44.89325 13.90741 256 ft 147 kts 267°
2026-05-08 22:17 44.89317 13.89137 320 ft 188 kts 272°
2026-05-08 22:17 44.89354 13.87408 1680 ft 164 kts 270°
2026-05-08 22:17 44.89494 13.85837 2783 ft 172 kts 298°
2026-05-08 22:17 44.90478 13.84791 3423 ft 199 kts 349°
2026-05-08 22:18 44.91864 13.85204 4226 ft 218 kts 37°
2026-05-08 22:18 44.92739 13.86937 5295 ft 222 kts 81°
2026-05-08 22:18 44.92739 13.89139 6188 ft 239 kts 89°
2026-05-08 22:18 44.92993 13.91449 6546 ft 236 kts 81°
2026-05-08 22:19 44.93176 13.93780 6804 ft 240 kts 86°
2026-05-08 22:19 44.93262 13.96124 6919 ft 239 kts 88°
2026-05-08 22:19 44.93321 13.98474 6968 ft 239 kts 88°
2026-05-08 22:19 44.93369 14.00812 6989 ft 238 kts 89°
2026-05-08 22:20 44.93410 14.03146 6999 ft 238 kts 89°
2026-05-08 22:20 44.93448 14.05484 7002 ft 238 kts 89°
2026-05-08 22:20 44.93482 14.07820 7005 ft 238 kts 89°
2026-05-08 22:20 44.93513 14.10154 7010 ft 238 kts 89°
2026-05-08 22:21 44.93543 14.12500 6898 ft 241 kts 89°
2026-05-08 22:21 44.93550 14.14804 6735 ft 228 kts 96°
2026-05-08 22:21 44.92890 14.16748 6591 ft 223 kts 140°
2026-05-08 22:21 44.91475 14.17520 6449 ft 223 kts 184°
2026-05-08 22:22 44.90124 14.16764 6300 ft 206 kts 227°
2026-05-08 22:22 44.89630 14.15024 6147 ft 197 kts 267°
2026-05-08 22:22 44.89589 14.13074 5972 ft 198 kts 270°
2026-05-08 22:22 44.89588 14.11325 5781 ft 157 kts 270°
2026-05-08 22:23 44.89607 14.09808 5159 ft 155 kts 271°
2026-05-08 22:23 44.89632 14.08306 4541 ft 153 kts 270°
2026-05-08 22:23 44.89642 14.06805 3924 ft 153 kts 269°
2026-05-08 22:23 44.89633 14.05386 3360 ft 141 kts 268°
2026-05-08 22:24 44.89613 14.04029 2788 ft 140 kts 267°
2026-05-08 22:24 44.89585 14.02639 2150 ft 139 kts 267°
2026-05-08 22:24 44.89555 14.01274 1612 ft 137 kts 267°
2026-05-08 22:24 44.89521 13.99929 1224 ft 137 kts 267°
2026-05-08 22:25 44.89503 13.98574 1026 ft 139 kts 268°
2026-05-08 22:25 44.89477 13.97223 815 ft 137 kts 269°
2026-05-08 22:25 44.89436 13.95879 607 ft 137 kts 268°
2026-05-08 22:25 44.89403 13.94540 380 ft 136 kts 268°
2026-05-08 22:26 44.89376 13.93221 271 ft 129 kts 269°
2026-05-08 22:26 44.89354 13.92180 229 ft 74 kts 267°
2026-05-08 22:26 44.89419 13.91929 224 ft 14 kts
2026-05-08 22:26 44.89476 13.91930 223 ft 11 kts
2026-05-08 22:27 44.89535 13.91931 225 ft 6 kts
2026-05-08 22:27 44.89559 13.91947 226 ft 2 kts 34°
2026-05-08 22:27 44.89561 13.91948 226 ft 0 kts 36°
2026-05-08 22:28 44.89567 13.91956 225 ft 4 kts 41°